Content
SEND FEEDBACK

Daily
Averages
Monthly
Summary
United States of America

HOTCHKISS, COLORADO


Home > North America > United States > Colorado
Elevation: 6011 feet     Latitude: 38 51N     Longitude: 107 35W

WEATHER
 
SELECT A DAY
Number of Records: 57,955;   Date Range: 2/9/12 - 8/27/14
 
SHARE

PRINT THIS DATA

[ ← Previous Day ]
WEATHER ALMANAC - FEBRUARY 5, 2013
[ Next Day → ]
[ °C ]   °F
Weather ElementAverageHighLow
Temperature35.9 °F51.4 °F (3:35 pm)23.5 °F (7:35 am)
Dewpoint22.7 °F25.9 °F (7:55 pm)19.4 °F (3:55 pm)
Humidity63.1 %92 % (3:15 am)29 % (3:15 pm)
Barometer30.11 in30.22 in (8:15 am)30.01 in (11:55 pm)
Wind Speed4.2 mph10.4 mph (12:55 pm)
Weather ElementAverage
Visibility10 mi
Wind DirectionESE (100.3 °)

Weather ElementTotal
Precipitation---
Heating Degree Days27.6 (Base 65)
Averaged from 69 records on February 5, 2013
WEATHER CONDITIONS BREAKOUT
WIND DIRECTION BREAKOUT
WEATHER BY HOUR - FEBRUARY 5, 2013
[ °C ]   °F
Local TimeTemperatureDewpointHumidityBarometerVisibilityWind DirectionWind SpeedGust SpeedPrecipitationEventsConditions
12:35 AM29.8 °F25.3 °F83 %30.18 in10.0 miENE (60°)4.6 mphClear
12:55 AM28.4 °F23.9 °F83 %30.18 in10.0 miNE (40°)4.6 mphClear
1:15 AM29.3 °F23.9 °F80 %30.18 in10.0 miENE (70°)4.6 mphClear
1:35 AM29.7 °F23.7 °F79 %30.18 in10.0 miESE (110°)3.5 mphClear
1:55 AM27.7 °F23.5 °F84 %30.19 in10.0 miCalmClear
2:15 AM28.4 °F24.3 °F84 %30.19 in10.0 miCalmClear
2:35 AM27.3 °F23.5 °F86 %30.19 in10.0 miCalmClear
2:55 AM25.7 °F22.5 °F88 %30.19 in10.0 miEast (100°)3.5 mphClear
3:15 AM25.0 °F23.0 °F92 %30.18 in10.0 miNE (40°)4.6 mphClear
3:35 AM25.7 °F22.8 °F89 %30.18 in10.0 miNNE (20°)5.8 mphClear
3:55 AM25.7 °F22.3 °F87 %30.19 in10.0 miNE (40°)6.9 mphClear
4:15 AM26.2 °F22.1 °F84 %30.18 in10.0 miNE (40°)5.8 mphClear
4:35 AM26.2 °F21.9 °F84 %30.19 in10.0 miNorth (10°)4.6 mphClear
4:55 AM26.4 °F21.9 °F83 %30.19 in10.0 miCalmClear
5:15 AM25.9 °F21.9 °F85 %30.19 in10.0 miCalmClear
5:35 AM25.0 °F21.6 °F87 %30.19 in10.0 miCalmClear
5:55 AM24.6 °F20.5 °F84 %30.19 in10.0 miENE (70°)4.6 mphClear
6:15 AM24.6 °F20.8 °F86 %30.19 in10.0 miENE (60°)5.8 mphClear
6:35 AM24.6 °F20.7 °F85 %30.20 in10.0 miEast (100°)5.8 mphClear
6:55 AM24.4 °F20.3 °F84 %30.21 in10.0 miEast (80°)4.6 mphClear
7:15 AM24.1 °F20.1 °F85 %30.21 in10.0 miEast (100°)4.6 mphClear
7:35 AM23.5 °F19.8 °F85 %30.21 in10.0 miENE (60°)5.8 mphClear
8:15 AM28.2 °F21.6 °F76 %30.22 in10.0 miCalmClear
8:35 AM29.7 °F21.7 °F72 %30.22 in10.0 miENE (70°)3.5 mphClear
8:55 AM31.1 °F21.7 °F68 %30.21 in10.0 miEast (100°)5.8 mphClear
9:15 AM32.7 °F21.6 °F64 %30.20 in10.0 miEast (90°)8.1 mphClear
9:35 AM33.4 °F21.7 °F62 %30.20 in10.0 miEast (90°)8.1 mphClear
9:55 AM34.9 °F22.5 °F61 %30.18 in10.0 miESE (110°)4.6 mphClear
10:15 AM35.2 °F22.6 °F60 %30.17 in10.0 miESE (110°)4.6 mphClear
10:35 AM37.2 °F23.5 °F58 %30.16 in10.0 miCalmClear
10:55 AM38.5 °F23.9 °F56 %30.16 in10.0 miCalmClear
11:15 AM40.1 °F24.3 °F53 %30.14 in10.0 miSW (220°)3.5 mphClear
11:35 AM41.4 °F23.9 °F50 %30.14 in10.0 miSW (220°)5.8 mphClear
11:55 AM42.6 °F23.4 °F47 %30.13 in10.0 miWest (270°)5.8 mphClear
12:15 PM43.5 °F22.8 °F44 %30.11 in10.0 miWSW (250°)8.1 mphClear
12:35 PM45.5 °F23.2 °F41 %30.10 in10.0 miSW (230°)9.2 mphClear
12:55 PM46.6 °F21.2 °F37 %30.09 in10.0 miSW (220°)10.4 mphClear
1:15 PM47.5 °F19.6 °F33 %30.08 in10.0 miWSW (240°)4.6 mphClear
1:35 PM49.1 °F21.7 °F34 %30.07 in10.0 miSW (220°)10.4 mphClear
1:55 PM49.6 °F22.3 °F34 %30.06 in10.0 miSW (230°)6.9 mphClear
2:15 PM50.2 °F20.8 °F32 %30.05 in10.0 miWSW (250°)6.9 mphClear
2:35 PM50.5 °F19.9 °F30 %30.04 in10.0 miSW (230°)6.9 mphClear
2:55 PM50.9 °F22.3 °F33 %30.03 in10.0 miSW (230°)8.1 mphClear
3:15 PM51.1 °F19.9 °F29 %30.03 in10.0 miSSW (200°)8.1 mphClear
3:35 PM51.4 °F19.6 °F29 %30.03 in10.0 miSSW (210°)4.6 mphClear
3:55 PM51.1 °F19.4 °F29 %30.02 in10.0 miSW (220°)6.9 mphClear
4:15 PM50.5 °F20.3 °F30 %30.02 in10.0 miSSW (210°)3.5 mphClear
4:35 PM50.0 °F19.9 °F31 %30.02 in10.0 miCalmClear
4:55 PM50.0 °F20.1 °F31 %30.02 in10.0 miSW (220°)3.5 mphClear
5:15 PM48.9 °F20.3 °F32 %30.02 in10.0 miCalmClear
5:35 PM47.5 °F20.5 °F34 %30.02 in10.0 miSW (220°)3.5 mphClear
5:55 PM45.7 °F23.2 °F41 %30.02 in10.0 miCalmClear
6:15 PM43.9 °F24.4 °F46 %30.02 in10.0 miCalmClear
6:35 PM40.3 °F25.7 °F56 %30.02 in10.0 miNNW (340°)4.6 mphClear
6:55 PM38.3 °F25.7 °F61 %30.02 in10.0 miNorth (360°)4.6 mphClear
7:15 PM40.1 °F24.4 °F54 %30.02 in10.0 miCalmClear
7:35 PM39.2 °F24.3 °F55 %30.03 in10.0 miCalmClear
7:55 PM37.0 °F25.9 °F64 %30.03 in10.0 miCalmClear
8:15 PM35.4 °F25.0 °F66 %30.03 in10.0 miCalmClear
8:35 PM38.1 °F25.0 °F59 %30.03 in10.0 miSSE (150°)4.6 mphClear
9:15 PM32.5 °F25.5 °F75 %30.04 in10.0 miCalmClear
9:35 PM31.6 °F25.0 °F76 %30.03 in10.0 miNE (50°)4.6 mphClear
9:55 PM31.5 °F25.0 °F77 %30.03 in10.0 miNE (40°)3.5 mphClear
10:15 PM32.0 °F25.2 °F76 %30.02 in10.0 miENE (60°)5.8 mphClear
10:35 PM32.4 °F25.5 °F76 %30.02 in10.0 miENE (70°)5.8 mphClear
10:55 PM32.0 °F25.5 °F77 %30.02 in10.0 miENE (60°)4.6 mphClear
11:15 PM31.6 °F25.5 °F78 %30.02 in10.0 miNE (40°)5.8 mphClear
11:35 PM31.1 °F25.2 °F79 %30.02 in10.0 miNE (40°)5.8 mphClear
11:55 PM30.7 °F25.0 °F79 %30.01 in10.0 miNE (50°)6.9 mphClear
Hourly data recorded from KAJZ, located miles away from Hotchkiss, Colorado







STORIES FROM OUR PARTNERS